Location: Astronomy Club of Akron Observatory
(40.9700°N, 81.5606°W)
Time: 00:14:59
(UTC-04:00)

ISS - Pass Details

Date: 22 July 2018
Orbit: 402 x 408 km, 51.6° (Epoch: 21 July)

Event Time Altitude Azimuth Distance (km) Brightness Sun altitude
Rises 05:31:11 0° 287° (WNW) 2,329 -0.3 -7.6°
Reaches altitude 10° 05:34:20 10° 254° (WSW) 1,464 -1.6 -7.1°
Maximum altitude 05:35:37 12° 231° (SW) 1,354 -1.9 -6.9°
Drops below altitude 10° 05:36:55 10° 207° (SSW) 1,460 -1.5 -6.7°
Sets 05:40:03 0° 174° (S) 2,314 -0.3 -6.2°
